VA3XLC Weather Reports


time (UTC)temp
F
wind
direction
speed
knots
gust
knots
rain 1hr
in
rain 24hr
in
rain mn
in
humidity
%
barometer
mb
20260510192654 52 28 3.5 6.1 0.00 0.00 0.00 36 985.2
20260510191112 52 280 4.3 7.0 0.00 0.00 0.00 36 985.2
20260510190610 52 334 6.1 9.6 0.00 0.00 0.00 36 985.2
20260510190110 52 281 4.3 7.8 0.00 0.00 0.00 37 985.1
20260510185610 52 332 4.3 7.8 0.00 0.00 0.00 37 985.1
20260510185110 51 294 4.3 7.8 0.00 0.00 0.00 38 985.1
20260510184048 51 326 6.1 9.6 0.00 0.00 0.00 38 985.1
20260510183548 52 313 7.0 8.7 0.00 0.00 0.00 37 985.1
20260510183047 51 328 6.1 8.7 0.00 0.00 0.00 38 985.0
20260510182547 52 331 6.1 9.6 0.00 0.00 0.00 36 985.0
20260510182047 52 325 6.1 9.6 0.00 0.00 0.00 40 984.9
20260510181547 51 296 5.2 8.7 0.00 0.00 0.00 39 984.9
20260510180525 51 323 5.2 7.8 0.00 0.00 0.00 39 984.9
20260510180025 50 325 6.1 8.7 0.00 0.00 0.00 40 984.9
20260510175003 52 327 6.1 10.4 0.00 0.00 0.00 36 984.8
20260510174502 52 328 6.1 7.8 0.00 0.00 0.00 40 984.8
20260510174002 51 19 3.5 7.0 0.00 0.00 0.00 41 984.8
20260510173502 51 323 6.1 7.8 0.00 0.00 0.00 40 984.8
20260510173002 51 314 5.2 7.8 0.00 0.00 0.00 40 984.9
20260510172502 51 337 4.3 7.8 0.00 0.00 0.00 43 984.8
20260510172002 50 330 4.3 7.8 0.00 0.00 0.00 41 984.9
20260510171502 50 3 6.1 8.7 0.00 0.00 0.00 40 984.8
20260510171002 50 343 7.0 10.4 0.00 0.00 0.00 39 984.9
20260510165940 50 11 4.3 7.8 0.00 0.00 0.00 39 984.7
20260510164357 50 333 7.0 10.4 0.00 0.00 0.00 41 984.6
20260510163857 50 20 6.1 9.6 0.00 0.00 0.00 40 984.5
20260510163357 50 345 5.2 7.8 0.00 0.00 0.00 41 984.5
20260510162856 50 342 4.3 7.0 0.00 0.00 0.00 41 984.5
20260510162356 50 33 1.7 4.3 0.00 0.00 0.00 41 984.5
20260510161855 50 353 4.3 7.0 0.00 0.00 0.00 41 984.4
20260510161355 50 350 3.5 6.1 0.00 0.00 0.00 40 984.4
20260510160855 50 359 5.2 9.6 0.00 0.00 0.00 42 984.4
20260510160355 50 332 6.1 7.8 0.00 0.00 0.00 42 984.4
20260510155855 50 336 6.1 10.4 0.00 0.00 0.00 39 984.3
20260510155355 49 333 4.3 7.8 0.00 0.00 0.00 40 984.4
20260510154854 49 347 7.0 10.4 0.00 0.00 0.00 40 984.4
20260510154354 49 314 5.2 8.7 0.00 0.00 0.00 40 984.3
20260510153854 49 324 7.8 12.2 0.00 0.00 0.00 40 984.3
20260510152833 49 346 3.5 6.1 0.00 0.00 0.00 41 984.2
20260510152333 49 298 4.3 7.8 0.00 0.00 0.00 41 984.2
20260510151311 49 324 7.0 10.4 0.00 0.00 0.00 38 984.1
20260510150810 49 345 5.2 8.7 0.00 0.00 0.00 39 984.0
20260510150310 48 348 5.2 7.8 0.00 0.00 0.00 39 984.0
20260510145810 48 323 4.3 6.1 0.00 0.00 0.00 41 984.0
20260510145309 48 334 4.3 7.0 0.00 0.00 0.00 43 983.9
20260510144809 48 336 3.5 6.1 0.00 0.00 0.00 44 983.8
20260510144308 48 345 1.7 3.5 0.00 0.00 0.00 45 983.8
20260510143808 48 342 3.5 5.2 0.00 0.00 0.00 48 983.8
20260510143308 47 336 3.5 5.2 0.00 0.00 0.00 49 983.7
20260510142807 47 322 1.7 5.2 0.00 0.00 0.00 50 983.6
20260510142307 47 9 1.7 4.3 0.00 0.00 0.00 46 983.6
20260510141245 46 21 4.3 5.2 0.00 0.00 0.00 48 983.5
20260510140224 46 11 3.5 7.0 0.00 0.00 0.00 53 983.4
20260510134642 45 359 4.3 7.0 0.00 0.00 0.00 53 983.3
20260510134142 45 335 4.3 6.1 0.00 0.00 0.00 53 983.2
20260510133641 45 323 4.3 9.6 0.00 0.00 0.00 55 983.1
20260510133141 45 322 6.1 7.8 0.00 0.00 0.00 55 983.1
20260510132641 45 308 3.5 5.2 0.00 0.00 0.00 58 983.1
20260510131620 45 356 3.5 6.1 0.00 0.00 0.00 58 983.1
20260510131120 45 10 3.5 5.2 0.00 0.00 0.00 56 983.0
20260510130620 45 9 4.3 7.8 0.00 0.00 0.00 57 983.0
20260510130119 45 350 5.2 7.8 0.00 0.00 0.00 59 982.9
20260510125619 45 334 5.2 7.8 0.00 0.00 0.00 60 982.8
20260510125119 44 334 5.2 7.8 0.00 0.00 0.00 59 982.8
20260510124619 44 7 5.2 7.8 0.00 0.00 0.00 59 982.8
20260510123558 44 351 3.5 5.2 0.00 0.00 0.00 61 982.7
20260510123057 43 339 7.0 8.7 0.00 0.00 0.00 64 982.6
20260510122036 43 350 3.5 7.0 0.00 0.00 0.00 67 982.6
20260510121536 42 334 5.2 7.8 0.00 0.00 0.00 68 982.5
20260510120515 42 7 3.5 5.2 0.00 0.00 0.00 69 982.5
20260510115453 42 334 5.2 7.0 0.00 0.00 0.00 70 982.4
20260510114953 41 339 3.5 4.3 0.00 0.00 0.00 71 982.4
20260510114453 41 345 3.5 5.2 0.00 0.00 0.00 72 982.4
20260510113953 41 349 2.6 4.3 0.00 0.00 0.00 72 982.1
20260510113453 40 334 2.6 4.3 0.00 0.00 0.00 72 982.1
20260510112952 40 342 2.6 3.5 0.00 0.00 0.00 73 982.0
20260510112452 39 337 3.5 4.3 0.00 0.00 0.00 73 981.9
20260510111952 39 344 3.5 5.2 0.00 0.00 0.00 74 981.9
20260510111452 39 341 1.7 4.3 0.00 0.00 0.00 75 981.9
20260510110952 38 316 2.6 3.5 0.00 0.00 0.00 75 981.8
20260510110452 38 315 2.6 4.3 0.00 0.00 0.00 75 981.7
20260510105952 38 320 2.6 4.3 0.00 0.00 0.00 75 981.7
20260510105451 37 300 1.7 2.6 0.00 0.00 0.00 77 981.7
20260510104951 36 261 0.9 1.7 0.00 0.00 0.00 78 981.7
20260510104451 36 265 1.7 1.7 0.00 0.00 0.00 79 981.5
20260510103429 35 261 0.9 1.7 0.00 0.00 0.00 80 981.3
20260510102929 35 289 0.9 1.7 0.00 0.00 0.00 80 981.2
20260510101908 35 0 0.0 0.0 0.00 0.00 0.00 80 981.0
20260510101407 35 247 1.7 1.7 0.00 0.00 0.00 80 980.9
20260510100907 35 248 0.9 1.7 0.00 0.00 0.00 80 980.8
20260510095846 34 252 1.7 1.7 0.00 0.00 0.00 83 980.7
20260510095346 34 0 0.0 0.0 0.00 0.00 0.00 83 980.6
20260510094846 34 0 0.0 0.0 0.00 0.00 0.00 83 980.5
20260510094345 34 0 0.0 0.0 0.00 0.00 0.00 83 980.3
20260510093845 34 0 0.0 0.0 0.00 0.00 0.00 83 980.3
20260510093345 35 0 0.0 0.0 0.00 0.00 0.00 83 980.1
20260510092845 35 0 0.0 0.0 0.00 0.00 0.00 83 980.0
20260510092344 35 0 0.0 0.0 0.00 0.00 0.00 83 980.0
20260510091844 35 228 0.9 1.7 0.00 0.00 0.00 82 979.9
20260510091344 35 242 1.7 1.7 0.00 0.00 0.00 82 979.8
20260510090844 35 246 0.9 1.7 0.00 0.00 0.00 81 979.7
20260510085305 36 235 0.9 0.9 0.00 0.00 0.00 80 979.4
20260510084801 36 250 0.9 1.7 0.00 0.00 0.00 79 979.3
20260510084301 36 0 0.0 0.0 0.00 0.00 0.00 80 979.1
20260510083801 36 240 0.9 1.7 0.00 0.00 0.00 79 979.1
20260510083301 36 250 0.9 1.7 0.00 0.00 0.00 79 979.0
20260510082801 36 0 0.0 0.0 0.00 0.00 0.00 79 979.0
20260510082301 37 0 0.0 0.0 0.00 0.00 0.00 78 978.9
20260510081801 37 0 0.0 0.0 0.00 0.00 0.00 77 978.9
20260510075657 39 259 1.7 1.7 0.00 0.00 0.00 74 978.8
20260510075157 39 260 1.7 1.7 0.00 0.00 0.00 73 978.7
20260510074656 39 261 1.7 1.7 0.00 0.00 0.00 72 978.6
20260510074156 40 288 1.7 2.6 0.00 0.00 0.00 72 978.6
20260510073656 40 287 0.9 1.7 0.00 0.00 0.00 72 978.5
20260510073155 40 268 0.9 1.7 0.00 0.00 0.00 71 978.5
20260510072655 40 0 0.0 0.0 0.00 0.00 0.00 71 978.3
20260510072155 41 308 0.9 2.6 0.00 0.00 0.00 70 978.3
20260510071655 41 0 0.0 0.0 0.00 0.00 0.00 70 978.3
20260510070112 42 34 1.7 3.5 0.00 0.00 0.00 67 978.3
20260510065612 42 341 1.7 2.6 0.00 0.00 0.00 67 978.3
20260510065112 42 2 0.9 2.6 0.00 0.00 0.00 66 978.3
20260510064612 43 21 2.6 4.3 0.00 0.00 0.00 65 978.0
20260510064112 43 14 1.7 3.5 0.00 0.00 0.00 64 978.0
20260510063611 43 358 1.7 2.6 0.00 0.00 0.00 64 978.0
20260510062550 44 7 2.6 4.3 0.00 0.00 0.00 63 978.2
20260510061007 44 26 2.6 4.3 0.00 0.00 0.00 64 978.0
20260510055946 44 344 2.6 5.2 0.00 0.00 0.00 66 978.0
20260510053842 45 321 1.7 2.6 0.00 0.00 0.00 64 977.7
20260510053342 46 27 1.7 5.2 0.00 0.00 0.00 65 977.6
20260510052841 46 344 3.5 4.3 0.00 0.00 0.00 65 977.5
20260510052341 46 1 1.7 3.5 0.00 0.00 0.00 64 977.5
20260510051841 46 339 1.7 3.5 0.00 0.00 0.00 64 977.4
20260510051340 46 329 0.9 3.5 0.00 0.00 0.00 65 977.3
20260510050840 46 301 0.9 1.7 0.00 0.00 0.00 66 977.2
20260510050340 46 290 0.9 2.6 0.00 0.00 0.00 68 977.1
20260510045840 46 345 2.6 3.5 0.00 0.00 0.00 69 977.1
20260510045340 46 319 1.7 2.6 0.00 0.00 0.00 69 977.1
20260510044317 46 277 0.9 0.9 0.00 0.00 0.00 69 976.9
20260510043817 46 195 0.9 1.7 0.00 0.00 0.00 69 976.8
20260510043317 47 256 0.9 0.9 0.00 0.00 0.00 69 976.8
20260510042817 47 330 2.6 2.6 0.00 0.00 0.00 68 976.7
20260510042317 47 261 0.0 0.9 0.00 0.00 0.00 67 976.5
20260510041817 48 201 0.9 1.7 0.00 0.00 0.00 66 976.3
20260510041316 48 87 0.9 1.7 0.00 0.00 0.00 65 976.1
20260510040816 48 23 0.9 1.7 0.00 0.00 0.00 65 976.2
20260510040316 48 150 1.7 2.6 0.00 0.00 0.00 64 976.3
20260510035816 48 11 0.9 1.7 0.00 0.00 0.00 64 976.2
20260510035316 49 351 0.9 2.6 0.00 0.00 0.00 63 976.3
20260510034816 49 352 1.7 3.5 0.00 0.00 0.00 62 976.0
20260510034315 49 22 2.6 4.3 0.00 0.00 0.00 62 975.9
20260510033815 49 39 2.6 3.5 0.00 0.00 0.00 63 976.2
20260510033315 50 343 2.6 4.3 0.00 0.00 0.00 63 976.1
20260510032815 50 1 1.7 3.5 0.00 0.00 0.00 63 975.7
20260510032315 50 48 2.6 3.5 0.00 0.00 0.00 62 975.7
20260510031814 50 116 0.9 1.7 0.00 0.00 0.00 63 975.9
20260510031314 50 341 2.6 3.5 0.00 0.00 0.00 62 975.7
20260510030814 51 49 1.7 2.6 0.00 0.00 0.00 63 975.1
20260510030314 51 102 1.7 3.5 0.00 0.00 0.00 61 975.1
20260510025253 52 137 2.6 3.5 0.00 0.00 0.00 61 975.2
20260510024753 52 345 0.9 1.7 0.00 0.00 0.00 61 975.2
20260510024252 52 37 2.6 5.2 0.00 0.00 0.00 61 975.2
20260510023752 52 330 1.7 2.6 0.00 0.00 0.00 61 975.2
20260510023252 53 348 2.6 3.5 0.00 0.00 0.00 62 975.1
20260510022230 53 25 2.6 3.5 0.00 0.00 0.00 61 974.6
20260510021730 53 38 2.6 4.3 0.00 0.00 0.00 61 974.5
20260510021229 53 44 2.6 4.3 0.00 0.00 0.00 63 974.4
20260510020729 54 29 2.6 5.2 0.00 0.00 0.00 65 974.2
20260510020229 54 11 0.9 2.6 0.00 0.00 0.00 65 974.4
20260510015728 54 19 1.7 3.5 0.00 0.00 0.00 64 974.3
20260510015227 54 0 2.6 4.3 0.00 0.00 0.00 63 974.1
20260510013124 55 33 0.9 1.7 0.00 0.00 0.00 67 973.6
20260510012102 55 0 3.5 4.3 0.00 0.00 0.00 68 973.5
20260510011602 55 343 0.9 2.6 0.00 0.00 0.00 75 973.3
20260510011102 55 0 0.0 0.0 0.00 0.00 0.00 80 973.3
20260510010602 55 34 0.9 1.7 0.00 0.00 0.00 80 973.1
20260510005040 55 241 0.9 0.9 0.00 0.00 0.00 80 972.8
20260510004540 55 252 1.7 1.7 0.00 0.00 0.00 80 972.7
20260510004040 55 242 0.9 0.9 0.00 0.00 0.00 80 972.7
20260510003540 55 266 1.7 2.6 0.00 0.00 0.00 80 972.6
20260510003040 55 0 0.0 0.0 0.00 0.00 0.00 80 972.5
20260510002540 56 327 0.9 1.7 0.00 0.00 0.00 80 972.3
20260510002039 56 0 0.0 0.0 0.00 0.00 0.00 79 972.2
20260510001539 56 0 0.0 0.0 0.00 0.00 0.00 78 972.1
20260510001039 56 38 1.7 1.7 0.00 0.00 0.00 77 971.9
20260510000539 56 0 0.0 0.0 0.00 0.00 0.00 77 971.7
20260510000038 56 250 1.7 2.6 0.00 0.00 0.00 76 971.6
20260509235016 57 225 0.9 2.6 0.00 0.00 0.00 76 971.6
20260509234516 57 291 1.7 3.5 0.00 0.00 0.00 75 971.6
20260509234016 57 255 1.7 6.1 0.00 0.00 0.00 75 971.5
20260509233515 58 249 3.5 5.2 0.00 0.00 0.00 74 971.4
20260509233015 58 250 3.5 5.2 0.00 0.00 0.00 73 971.2
20260509231953 59 248 2.6 3.5 0.00 0.00 0.00 73 971.2
20260509231452 59 259 2.6 4.3 0.00 0.00 0.00 73 971.2
20260509230952 59 247 2.6 3.5 0.00 0.00 0.00 73 971.1
20260509230452 59 251 2.6 4.3 0.00 0.00 0.00 72 971.0
20260509225431 60 210 1.7 2.6 0.00 0.00 0.00 71 970.8
20260509224931 59 216 0.9 2.6 0.00 0.00 0.00 72 970.8
20260509224430 59 246 1.7 3.5 0.00 0.00 0.00 72 970.7
20260509223409 58 249 3.5 5.2 0.00 0.00 0.00 72 970.5
20260509222909 58 226 1.7 3.5 0.00 0.00 0.00 74 970.5
20260509222409 58 267 4.3 5.2 0.00 0.00 0.00 73 970.4
20260509221908 57 243 3.5 4.3 0.00 0.00 0.00 73 970.4
20260509220325 55 266 4.3 6.1 0.00 0.00 0.00 75 970.4
20260509215825 55 256 2.6 5.2 0.00 0.00 0.00 77 970.4
20260509215325 54 257 3.5 5.2 0.00 0.00 0.00 78 970.4
20260509214304 53 199 2.6 5.2 0.00 0.00 0.00 81 970.6
20260509213803 53 266 2.6 7.0 0.00 0.00 0.00 81 970.7
20260509213303 53 230 3.5 5.2 0.00 0.00 0.00 81 970.8
20260509212803 53 268 4.3 9.6 0.00 0.00 0.00 81 970.8
20260509211742 53 257 1.7 3.5 0.00 0.00 0.00 81 970.8
20260509211242 52 240 2.6 5.2 0.00 0.00 0.00 82 970.8
20260509210741 52 259 5.2 7.0 0.00 0.00 0.00 81 970.7
20260509210241 52 256 4.3 6.1 0.00 0.00 0.00 82 970.8
20260509205740 51 258 3.5 6.1 0.00 0.00 0.00 84 970.8
20260509204719 51 259 3.5 5.2 0.00 0.00 0.00 83 970.8
20260509204219 51 263 6.1 8.7 0.00 0.00 0.00 83 971.1
20260509203719 51 271 7.0 11.3 0.00 0.00 0.00 84 971.0
20260509203219 52 271 5.2 8.7 0.00 0.00 0.00 82 971.5
20260509202718 55 313 5.2 7.8 0.00 0.00 0.00 77 971.7
20260509202218 58 341 9.6 13.9 0.00 0.00 0.00 70 971.7
20260509201156 59 258 8.7 13.0 0.00 0.00 0.00 71 969.8
20260509200656 59 265 7.0 14.8 0.00 0.00 0.00 71 969.9
20260509200156 59 250 7.0 9.6 0.00 0.00 0.00 71 969.9
20260509195656 59 252 8.7 14.8 0.00 0.00 0.00 71 970.0
20260509195156 59 265 11.3 20.9 0.00 0.00 0.00 71 970.0
20260509194655 59 242 8.7 21.7 0.00 0.00 0.00 71 969.9
20260509193634 59 255 6.1 9.6 0.00 0.00 0.00 71 970.0
20260509193134 59 247 4.3 7.0 0.00 0.00 0.00 71 970.0